{"data":{"norad_id":47362,"intl_designator":"2021-005P","name":"STARLINK-2076","alt_names":[],"object_type":"PAYLOAD","status":"ACTIVE","operator":null,"country":"US","launch_date":"2021-01-20","launch_site_code":"AFETR","launch_vehicle":null,"mission":null,"orbit_class":"UNKNOWN","rcs_meters":null,"size_class":null,"mass_kg":null,"dimensions":null,"purposes":["comms"],"wikipedia_slug":null,"has_3d_model":false,"image_url":null,"decayed_at":null,"tle_current":{"epoch":"2026-05-25T01:47:02.658048Z","epoch_age_seconds":75537,"freshness":"FRESH","line1":"1 47362U 21005P   26145.07433632  .00038830  00000+0  11699-2 0  9995","line2":"2 47362  53.1587  66.9943 0001725 111.7254 248.3932 15.33979082294739","mean_motion":15.33979082,"eccentricity":0.0001725,"inclination_deg":53.1587,"raan_deg":66.9943,"arg_perigee_deg":111.7254,"mean_anomaly_deg":248.3932,"bstar":0.0011699,"rev_number":29473,"period_min":93.873509547635,"perigee_km":462.77432247177,"apogee_km":465.134844068,"semimajor_km":6842.0915832699,"source":"CELESTRAK","updated_at":"2026-05-25T13:38:16.525720Z"}}}